RH
40 43 47 52 54 56 57 59 59 59 59 60 61 60 62 65 66 68 71 72 73 72 69 65 59 54 49 44 43 46 47 42 33 31 31 28 25 23 22 22 22 22
42 45 49 52 54 55 56 57 57 57 59 59 59 59 61 63 65 66 70 72 73 72 68 62 57 55 52 48 48 49 46 39 32 31 31 28 25 23 22 22 23 23
44 47 50 53 55 55 55 55 56 57 58 57 56 59 62 65 66 68 70 73 74 71 66 61 57 56 54 51 51 48 43 36 33 32 31 29 26 24 23 24 23 23
46 48 51 53 55 54 53 53 55 57 55 53 55 60 64 65 66 68 71 73 73 70 66 61 58 57 54 53 52 48 40 36 34 32 32 30 26 24 24 24 25 25
47 49 51 53 54 53 52 52 54 55 52 52 56 62 65 65 65 67 71 72 71 68 65 62 60 57 55 54 52 46 40 38 35 33 33 31 27 25 24 25 26 26
47 49 51 53 53 53 52 53 54 53 51 53 58 63 64 63 63 66 70 70 69 67 64 62 60 57 55 53 50 44 41 39 36 34 34 31 27 25 24 26 27 27
46 49 50 52 53 53 53 53 53 51 51 54 58 61 62 61 62 66 69 68 66 63 61 60 59 56 53 50 46 43 41 38 35 35 34 31 28 26 25 26 27 27
46 49 50 51 52 53 53 53 51 51 52 55 58 60 60 60 61 64 66 65 63 60 58 57 56 53 50 47 44 41 39 36 34 34 33 31 29 27 27 26 27 27
45 48 50 51 51 52 54 53 52 53 53 55 57 59 59 59 62 63 62 60 57 55 55 55 54 52 50 47 44 40 37 34 34 34 33 32 31 29 28 27 26 26
44 48 50 50 51 53 54 54 54 54 55 56 57 57 57 59 61 62 61 57 55 54 55 55 55 54 51 47 44 41 37 35 35 34 33 33 32 30 29 28 27 26
43 47 49 50 52 53 55 55 55 56 57 57 58 57 58 58 58 59 60 58 57 57 57 57 56 54 51 48 45 42 39 37 36 35 35 35 34 32 31 30 29 28
43 46 48 50 52 53 55 56 55 57 58 59 59 59 58 58 57 59 59 57 57 57 58 58 56 53 50 48 45 42 40 38 37 37 38 39 37 36 34 34 32 31
43 45 48 52 53 54 57 57 56 58 60 61 61 61 59 58 58 59 59 57 55 57 58 58 55 51 49 47 45 42 41 40 40 41 42 42 41 39 38 37 36 34
43 46 49 53 55 56 58 58 57 59 60 61 62 62 61 59 58 59 59 57 56 57 57 56 54 50 47 45 44 44 44 44 45 45 45 45 44 42 41 40 40 37
43 47 50 54 57 58 59 59 59 59 60 61 62 63 62 60 58 60 62 60 58 58 56 54 52 48 45 45 45 46 48 50 49 48 48 48 47 46 45 44 43 40
43 46 50 54 57 59 59 60 60 60 60 61 62 63 63 60 59 61 63 63 62 60 59 56 52 49 47 47 48 49 52 53 52 51 51 50 50 50 49 48 46 43
43 45 49 54 58 59 60 61 61 61 62 63 62 62 62 60 59 60 62 63 63 62 61 59 56 53 51 51 52 53 55 55 55 55 53 52 52 51 51 51 49 45
42 45 50 55 58 60 61 62 62 62 62 62 61 60 60 59 58 59 61 61 61 60 60 61 59 56 54 54 55 55 56 56 55 55 54 53 53 54 55 54 51 48
42 46 51 56 59 61 62 63 64 63 62 61 60 60 59 59 59 59 59 59 58 58 59 59 58 56 55 54 54 54 55 55 55 55 56 56 56 58 59 59 58 54
43 47 53 57 60 62 63 64 65 64 62 62 61 60 59 59 60 60 60 59 58 58 57 57 57 57 57 56 55 55 55 55 56 58 62 65 64 61 60 61 63 61
44 49 54 58 61 62 63 65 66 65 64 63 62 61 60 60 62 61 61 61 59 58 57 57 57 57 59 59 59 58 58 57 59 63 67 71 68 61 58 55 55 58
46 51 56 59 61 63 64 65 66 65 65 64 63 62 61 61 61 61 63 64 62 61 59 59 59 60 61 63 62 62 62 61 64 67 67 66 62 57 56 52 49 51
47 52 56 59 62 64 65 66 66 66 65 64 64 62 61 61 61 61 63 64 64 63 63 62 62 62 64 66 66 65 64 63 65 67 67 64 59 54 54 53 50 48
47 52 56 59 63 66 68 68 67 66 67 66 64 63 62 63 64 62 62 63 64 65 64 63 63 63 65 68 67 65 65 65 64 65 67 64 58 55 56 54 51 49
48 53 55 56 60 66 69 69 68 67 68 67 66 65 65 66 67 66 64 63 64 65 64 63 64 64 65 66 66 66 66 66 65 66 66 64 60 60 61 58 55 52
48 51 53 56 61 66 69 70 70 69 68 67 66 67 68 69 69 68 67 66 66 67 68 68 68 68 68 68 69 68 66 65 66 64 63 65 67 67 66 63 63 58